[[{"header":{"parameterUnit":"m.s-1","parameterCategory":1,"la1":30.2991,"la2":30.254,"lo1":-89.0895,"lo2":-89.0444,"dy":0.0017,"dx":0.0017,"nx":28,"ny":28,"refTime":"2025-07-03T03:00:00:Z","depth":0,"parameterNumber":2,"parameterNumberName":"U-component_of_WINDS"},"data":[0,0,0,0,0,0,0,0,0,0,0,0,0,0,0,0,0,0,0,0,0,0,0,0,0,0,0,0,0,0,0,0,0,0,0,0,0,0,0,0,0,0,0,0,0,0,0,0,0,0,0,0,0,0,0,0,0,0,0.7351,0.7352,0,0.7478,0.7479,0.7481,0.7457,0.7455,0.7453,0.745,0.7589,0.7594,0.76,0,0,0,0,0,0,0,0,0,0,0,0,0,0.7095,0.71,0.7351,0.7352,0.7354,0.7478,0.7479,0.7481,0.7458,0.7455,0.7452,0.7449,0.7587,0.7594,0.7601,0,0,0,0,0,0,0,0,0,0,0,0,0,0.7213,0.7102,0.735,0.7357,0.7359,0.7477,0.7479,0.7482,0.7458,0.7455,0.7451,0.7448,0.7584,0.7593,0.7602,0.7724,0,0,0.7628,0.7632,0,0,0,0,0,0,0,0,0.7206,0.7222,0.7354,0.7356,0.7359,0.7448,0.744,0.7563,0.7459,0.7421,0.745,0.7446,0.7545,0.7557,0.7589,0.7731,0.7737,0.7629,0.7634,0.7638,0.7641,0,0,0,0,0,0,0,0.7198,0.7217,0.7401,0.7356,0.7359,0.7356,0.7369,0.7463,0.7501,0.7424,0.7422,0.7437,0.7546,0.758,0.7592,0.7739,0.7629,0.7637,0.7642,0.7645,0.7991,0.7995,0,0,0,0,0,0,0.7187,0.721,0.7397,0.7405,0.7272,0.7363,0.7378,0.7423,0.75,0.7508,0.744,0.7436,0.7567,0.7581,0.7596,0.7748,0.7638,0.7646,0.7651,0.7987,0.7992,0.7996,0,0,0,0,0,0,0.7181,0.7204,0.7392,0.7307,0.7331,0.7371,0.7422,0.7427,0.7462,0.7512,0.7519,0.7468,0.7565,0.7584,0.7693,0.7752,0.765,0.7658,0.7983,0.7989,0.7994,0.8049,0,0,0,0,0,0,0.7174,0.7202,0.7247,0.7308,0.7335,0.7484,0.7426,0.7432,0.7476,0.7471,0.754,0.7548,0.7564,0.768,0.7701,0.7762,0.7665,0.7978,0.7985,0.7992,0.8042,0.8056,0.8068,0,0,0,0,0,0.7165,0.7259,0.7249,0.7272,0.7392,0.7487,0.7503,0.7517,0.748,0.7528,0.756,0.7546,0.7741,0.7691,0.7715,0.7779,0.7974,0.7983,0.7992,0.8037,0.8054,0.8068,0,0,0,0,0,0,0.7206,0.7267,0.7257,0.7373,0.7425,0.7483,0.7543,0.7534,0.7599,0.7593,0.7609,0.7625,0.7736,0.7768,0.7711,0.7904,0.7853,0.7867,0.7879,0.7895,0.7908,0.7899,0.7672,0,0,0,0,0,0.7228,0.7297,0.7348,0.7445,0.7471,0.7503,0.7545,0.755,0.7606,0.7629,0.7669,0.7726,0.78,0.7849,0.792,0.8046,0.8063,0.8102,0.8115,0.8125,0.8139,0.821,0.8229,0.8025,0.8025,0.8025,0,0,0.7275,0.7317,0.736,0.7454,0.7495,0.757,0.7522,0.7602,0.7659,0.7642,0.7747,0.7778,0.7843,0.7961,0.8016,0.7992,0.8198,0.8137,0.8145,0.8152,0.8221,0.8241,0.8258,0.8031,0.803,0.8029,0,0,0.74,0.7437,0.7523,0.7564,0.7626,0.7646,0.7667,0.7727,0.7747,0.7852,0.7841,0.791,0.8036,0.8084,0.8124,0.8267,0.8257,0.829,0.8358,0.8428,0.8444,0.8459,0.8512,0.8531,0.8302,0.8302,0.8302,0,0.7451,0.756,0.7569,0.7651,0.7694,0.7679,0.7769,0.7809,0.7892,0.7924,0.7895,0.8055,0.8097,0.8228,0.8262,0.8294,0.8321,0.8283,0.844,0.8455,0.8469,0.852,0.854,0.8306,0.8305,0.8305,0.8304,0,0.7622,0.7699,0.7761,0.7839,0.7889,0.7974,0.7999,0.8049,0.805,0.8074,0.8183,0.8233,0.8314,0.8345,0.8348,0.8477,0.8461,0.8436,0.8386,0.8492,0.8541,0.856,0.8311,0.831,0.8309,0.8308,0,0,0.7778,0.7859,0.7882,0.7918,0.7985,0.8046,0.8131,0.8209,0.8253,0.8311,0.8385,0.8493,0.847,0.8517,0.8525,0.8585,0.8699,0.8554,0.8556,0.8582,0.8847,0.8868,0.889,0.8691,0.8695,0.8698,0.8843,0,0.7911,0.8059,0.807,0.8205,0.8277,0.8264,0.8339,0.839,0.8415,0.8482,0.8511,0.8588,0.8551,0.8579,0.8638,0.8672,0.8753,0.8661,0.8765,0.8768,0.8751,0.8915,0.8936,0.9071,0.8862,0.8865,0.8867,0,0.8086,0.8147,0.8289,0.8347,0.8378,0.8445,0.8518,0.858,0.8639,0.8653,0.8704,0.8704,0.8795,0.8739,0.8867,0.8805,0.8847,0.887,0.8876,0.8889,0.8826,0.8935,0.9114,0.9135,0.8897,0.8895,0.8892,0,0.8189,0.8306,0.8407,0.8438,0.8508,0.8555,0.8587,0.8642,0.8688,0.8753,0.8784,0.8858,0.89,0.896,0.8981,0.8937,0.9109,0.9054,0.9126,0.9126,0.9165,0.9163,0.9356,0.9188,0.9187,0.9187,0.9186,0,0.8338,0.8426,0.8454,0.8517,0.8616,0.8628,0.8727,0.8756,0.8805,0.8875,0.8869,0.8935,0.8957,0.9029,0.9046,0.9151,0.9169,0.9185,0.919,0.9188,0.9186,0.9218,0.9211,0.9192,0.9191,0.919,0.9189,0,0.8471,0.8493,0.8602,0.8658,0.8675,0.8746,0.8795,0.8857,0.888,0.8969,0.8991,0.9028,0.9111,0.9137,0.9239,0.925,0.9374,0.9368,0.9354,0.9355,0.9427,0.9421,0.965,0.9682,0.9489,0.9491,0.9492,0,0.8566,0.8633,0.8696,0.8741,0.8774,0.8847,0.8894,0.8909,0.8959,0.9031,0.9085,0.9166,0.9233,0.9367,0.9406,0.9483,0.9482,0.9556,0.9494,0.949,0.9487,0.9483,0.9492,0.9569,0.9571,0.9573,0.9574,0,0.8733,0.8741,0.8807,0.8878,0.8934,0.8991,0.9046,0.9085,0.9108,0.9164,0.9248,0.93,0.9402,0.9485,0.9564,0.96,0.9593,0.9593,0.9615,0.9615,0.9605,0.9614,0.9389,0.9589,0.9587,0.9586,0.9585,0.9585,0.8852,0.8912,0.8966,0.9041,0.9084,0.9136,0.9197,0.9227,0.9296,0.9379,0.9384,0.9476,0.9535,0.964,0.9679,0.9753,0.9732,0.9762,0.9771,0.9779,0.9786,0.959,0.9767,0.9767,0.9767,0.9766,0.9766,0,0.9022,0.9056,0.9124,0.9201,0.9261,0.9245,0.9305,0.9357,0.9437,0.9491,0.9556,0.9654,0.9734,0.9778,0.9859,0.991,0.9909,0.9931,0.9929,0.9938,0.9799,0.9773,0.993,0.993,0.993,0.993,0.993,0.993,0.9117,0.9219,0.9233,0.9356,0.939,0.9478,0.9514,0.9563,0.9607,0.9715,0.9781,0.9808,0.9859,0.9943,1.0017,1.0028,1.006,1.0085,1.0094,0.9964,0.9947,0.9931,0.9908,1.0091,1.0091,1.0228,1.0229,1.023]},{"header":{"parameterUnit":"m.s-1","parameterCategory":1,"la1":30.2991,"la2":30.254,"lo1":-89.0895,"lo2":-89.0444,"dy":0.0017,"dx":0.0017,"nx":28,"ny":28,"refTime":"2025-07-03T03:00:00:Z","depth":0,"parameterNumber":3,"parameterNumberName":"V-component_of_WINDS"},"data":[0,0,0,0,0,0,0,0,0,0,0,0,0,0,0,0,0,0,0,0,0,0,0,0,0,0,0,0,0,0,0,0,0,0,0,0,0,0,0,0,0,0,0,0,0,0,0,0,0,0,0,0,0,0,0,0,0,0,-0.4193,-0.4193,0,-0.4127,-0.4126,-0.4125,-0.4215,-0.4218,-0.4222,-0.4225,-0.4154,-0.4149,-0.4144,0,0,0,0,0,0,0,0,0,0,0,0,0,-0.4398,-0.4394,-0.4194,-0.4193,-0.4192,-0.4127,-0.4126,-0.4125,-0.4215,-0.4219,-0.4223,-0.4226,-0.4156,-0.415,-0.4144,0,0,0,0,0,0,0,0,0,0,0,0,0,-0.4318,-0.4392,-0.4194,-0.4229,-0.4231,-0.4127,-0.4126,-0.4125,-0.4214,-0.4219,-0.4224,-0.4228,-0.4158,-0.415,-0.4143,-0.4001,0,0,-0.4121,-0.4118,0,0,0,0,0,0,0,0,-0.4322,-0.431,-0.4224,-0.4226,-0.4229,-0.4184,-0.4172,-0.4083,-0.4213,-0.422,-0.4225,-0.423,-0.416,-0.4153,-0.413,-0.3997,-0.3994,-0.412,-0.4116,-0.4112,-0.411,0,0,0,0,0,0,0,-0.4328,-0.4314,-0.4167,-0.4223,-0.4226,-0.4248,-0.4242,-0.4156,-0.4164,-0.422,-0.4226,-0.4217,-0.4162,-0.4136,-0.4129,-0.3993,-0.412,-0.4114,-0.4109,-0.4106,-0.3743,-0.3738,0,0,0,0,0,0,-0.4329,-0.4318,-0.4169,-0.4165,-0.4289,-0.424,-0.4233,-0.4194,-0.4165,-0.4165,-0.4213,-0.4222,-0.4147,-0.4137,-0.4126,-0.3959,-0.4113,-0.4106,-0.4101,-0.3748,-0.3742,-0.3736,0,0,0,0,0,0,-0.4333,-0.4315,-0.4172,-0.4243,-0.4227,-0.4231,-0.4186,-0.419,-0.4164,-0.416,-0.4162,-0.4186,-0.415,-0.4137,-0.4032,-0.3957,-0.4102,-0.4096,-0.3755,-0.3746,-0.3739,-0.3621,0,0,0,0,0,0,-0.4339,-0.4316,-0.4262,-0.4241,-0.4222,-0.4078,-0.4181,-0.4185,-0.4152,-0.4162,-0.4134,-0.4134,-0.4153,-0.4042,-0.4025,-0.395,-0.409,-0.3761,-0.3751,-0.3742,-0.3632,-0.361,-0.3592,0,0,0,0,0,-0.4346,-0.423,-0.4259,-0.424,-0.4155,-0.4074,-0.4063,-0.4087,-0.4145,-0.4091,-0.4089,-0.4135,-0.3969,-0.4031,-0.4012,-0.3934,-0.3766,-0.3754,-0.3742,-0.3641,-0.3614,-0.3592,0,0,0,0,0,0,-0.424,-0.4228,-0.4259,-0.4134,-0.4104,-0.4089,-0.4021,-0.4058,-0.4011,-0.4022,-0.4054,-0.4047,-0.3935,-0.3924,-0.3994,-0.3795,-0.3877,-0.3861,-0.3806,-0.3781,-0.3762,-0.3766,-0.4084,0,0,0,0,0,-0.4203,-0.4138,-0.4131,-0.4021,-0.4005,-0.4015,-0.3981,-0.4002,-0.3973,-0.396,-0.395,-0.3919,-0.386,-0.3821,-0.3766,-0.3631,-0.3627,-0.3568,-0.3549,-0.3532,-0.3517,-0.3447,-0.3421,-0.3698,-0.3698,-0.3698,0,0,-0.4123,-0.4109,-0.4066,-0.3999,-0.3979,-0.3911,-0.4004,-0.3928,-0.3878,-0.3948,-0.3849,-0.3841,-0.3809,-0.3689,-0.3635,-0.3676,-0.3441,-0.3517,-0.3504,-0.3498,-0.3432,-0.3406,-0.3383,-0.369,-0.3691,-0.3692,0,0,-0.3945,-0.3927,-0.3834,-0.3813,-0.3782,-0.379,-0.3768,-0.3747,-0.3745,-0.3646,-0.3698,-0.364,-0.3537,-0.3512,-0.3486,-0.3302,-0.3343,-0.3283,-0.3178,-0.3109,-0.3088,-0.3068,-0.3003,-0.2979,-0.3269,-0.3268,-0.3268,0,-0.385,-0.3751,-0.3781,-0.3702,-0.3672,-0.3735,-0.3641,-0.3618,-0.357,-0.3548,-0.3595,-0.3469,-0.3451,-0.3327,-0.3283,-0.3259,-0.3235,-0.3285,-0.3088,-0.3069,-0.3052,-0.299,-0.2965,-0.3261,-0.3262,-0.3263,-0.3263,0,-0.3636,-0.3567,-0.3495,-0.3449,-0.3411,-0.3325,-0.3343,-0.33,-0.3326,-0.333,-0.3229,-0.3211,-0.3155,-0.3127,-0.3151,-0.3007,-0.3033,-0.3083,-0.3166,-0.3018,-0.296,-0.2937,-0.3251,-0.3254,-0.3256,-0.3258,0,0,-0.3386,-0.336,-0.3333,-0.3314,-0.3286,-0.3232,-0.315,-0.3097,-0.306,-0.3025,-0.2957,-0.2871,-0.2918,-0.2888,-0.291,-0.285,-0.2706,-0.2908,-0.2908,-0.2871,-0.2547,-0.2509,-0.2481,-0.2734,-0.273,-0.2726,-0.255,0,-0.3208,-0.3066,-0.3092,-0.2954,-0.2891,-0.2951,-0.288,-0.2854,-0.2856,-0.2803,-0.2805,-0.2743,-0.281,-0.2793,-0.2736,-0.2735,-0.2641,-0.2749,-0.2671,-0.2668,-0.2676,-0.245,-0.2409,-0.2243,-0.2527,-0.2524,-0.2521,0,-0.298,-0.2939,-0.2794,-0.2778,-0.2753,-0.2688,-0.2642,-0.259,-0.2564,-0.257,-0.2538,-0.2572,-0.2491,-0.2576,-0.2465,-0.2538,-0.2508,-0.2503,-0.2497,-0.249,-0.2584,-0.2436,-0.2191,-0.2165,-0.2485,-0.2488,-0.2491,0,-0.2812,-0.2721,-0.2623,-0.2604,-0.2583,-0.2536,-0.2525,-0.2504,-0.247,-0.243,-0.2409,-0.236,-0.2332,-0.2294,-0.2314,-0.2374,-0.2199,-0.2286,-0.2202,-0.2201,-0.2161,-0.2163,-0.1906,-0.2143,-0.2143,-0.2144,-0.2144,0,-0.2609,-0.2518,-0.2547,-0.2487,-0.2388,-0.242,-0.2321,-0.2317,-0.2298,-0.2238,-0.2287,-0.223,-0.2261,-0.2207,-0.2222,-0.2128,-0.2115,-0.2118,-0.2123,-0.2113,-0.2112,-0.2093,-0.2104,-0.2137,-0.2139,-0.214,-0.2141,0,-0.2404,-0.242,-0.2317,-0.2306,-0.2302,-0.2229,-0.222,-0.2164,-0.2171,-0.2095,-0.2079,-0.2089,-0.2028,-0.2045,-0.1978,-0.1989,-0.187,-0.189,-0.1879,-0.1884,-0.1799,-0.1806,-0.1519,-0.1484,-0.1744,-0.1741,-0.1739,0,-0.2273,-0.2205,-0.2187,-0.2152,-0.2137,-0.2078,-0.2046,-0.2076,-0.2039,-0.2006,-0.1954,-0.1897,-0.1853,-0.1753,-0.1754,-0.1704,-0.1723,-0.1626,-0.1715,-0.1708,-0.1721,-0.1725,-0.1718,-0.1607,-0.1604,-0.1602,-0.16,0,-0.2039,-0.2051,-0.2001,-0.1955,-0.1915,-0.188,-0.1849,-0.1817,-0.1845,-0.1802,-0.1741,-0.1707,-0.164,-0.1583,-0.1538,-0.1527,-0.1567,-0.1572,-0.155,-0.1538,-0.1535,-0.1536,-0.183,-0.1578,-0.158,-0.1582,-0.1583,-0.1584,-0.1866,-0.1809,-0.1789,-0.1733,-0.1714,-0.1685,-0.1632,-0.1634,-0.1583,-0.1531,-0.1553,-0.1482,-0.146,-0.1404,-0.1387,-0.1333,-0.137,-0.1337,-0.1329,-0.1321,-0.131,-0.1545,-0.1325,-0.1325,-0.1326,-0.1327,-0.1327,0,-0.1634,-0.1625,-0.1574,-0.153,-0.1487,-0.1531,-0.15,-0.1461,-0.1398,-0.1375,-0.1332,-0.1262,-0.1208,-0.1207,-0.1157,-0.1113,-0.1131,-0.1099,-0.1102,-0.1099,-0.128,-0.1304,-0.1086,-0.1086,-0.1086,-0.1086,-0.1086,-0.1086,-0.1509,-0.1415,-0.1425,-0.1323,-0.1314,-0.1246,-0.1225,-0.1199,-0.118,-0.1101,-0.1057,-0.1057,-0.1042,-0.0992,-0.0945,-0.0946,-0.0925,-0.0886,-0.0894,-0.1062,-0.1086,-0.1109,-0.1132,-0.0881,-0.0881,-0.0718,-0.0717,-0.0716]}]]